Flag for Canada Weather past 2 weeks in Kelowna, British Columbia, Canada

Now
50 °F

Partly cloudy.


Feels Like: 50 °F
Forecast: 44 / 57 °F
Wind: No wind

Location: Kelowna Airport

Current Time: Oct 20, 2014 at 10:32:53 PM

Latest Report: Oct 20, 2014 at 10:00 PM


Visibility: 9 mi

Pressure: 29.72 "Hg

Humidity: 94%

Dew point: 48 °F

Location of KelownaLocation

Historic Weather in Kelowna — Graph

°F

Kelowna temperature yesterday

Maximum temperature yesterday: 64 °F (at 4:00 PM)
Minimum temperature yesterday: 43 °F (at 1:47 AM)
Average temperature yesterday: 51 °F

Past Weeks' High & Low Weather Summary

 TemperatureHumidityPressure
High72 °F (Oct 7, 3:00 PM)100% (Oct 6, 4:00 AM)30.17 "Hg (Oct 6, 4:00 AM)
Low37 °F (Oct 16, 6:00 AM)34% (Oct 14, 3:00 PM)29.56 "Hg (Oct 14, 2:00 AM)
Average52 °F80%29.92 "Hg
* Reported Oct 5 9:00 PM — Oct 20 9:00 PM, Kelowna, Weather by CustomWeather, © 2014

Note: Actual official high and low records may vary slightly from our data, if they occured in-between our weather recording intervals... More about our weather records

Advertising

Kelowna weather history for previous 24 hours

 ConditionsComfort  
Time TempWeatherWind HumidityBarometerVisibility
9:00 PM
Oct 20
54 °FPartly cloudy.8 mph82%29.71 "Hg9 mi
8:00 PM54 °FPartly cloudy.3 mph82%29.72 "Hg9 mi
7:00 PM54 °FMostly cloudy.5 mph82%29.70 "Hg9 mi
6:02 PM54 °FMore clouds than sun.7 mph88%29.71 "Hg9 mi
5:00 PM55 °FLight rain. Overcast.9 mph88%29.73 "Hg9 mi
4:00 PM55 °FLight rain. Overcast.10 mph82%29.72 "Hg9 mi
3:00 PM57 °FLight rain. Cloudy.3 mph82%29.72 "Hg9 mi
2:00 PM57 °FBroken clouds.6 mph82%29.72 "Hg9 mi
1:00 PM57 °FPartly sunny.3 mph82%29.71 "Hg9 mi
12:03 PM54 °FRain. Fog.8 mph94%29.74 "Hg5 mi
12:00 PM54 °FRain. Fog.7 mph88%29.75 "Hg6 mi
11:00 AM54 °FOvercast.5 mph88%29.70 "Hg9 mi
10:00 AM54 °FMostly cloudy.5 mph88%29.72 "Hg9 mi
9:00 AM50 °FOvercast.2 mph94%29.72 "Hg9 mi
8:00 AM50 °FOvercast.2 mph94%29.72 "Hg9 mi
7:00 AM48 °FOvercast.3 mph100%29.70 "Hg9 mi
6:00 AM48 °FOvercast.No wind100%29.71 "Hg9 mi
5:00 AM48 °FPassing clouds.2 mph94%29.71 "Hg9 mi
4:00 AM48 °FOvercast.2 mph94%29.72 "Hg9 mi
3:00 AM45 °FClear.3 mph93%29.73 "Hg9 mi
2:00 AM46 °FClear.No wind93%29.73 "Hg9 mi
1:00 AM48 °FClear.5 mph94%29.72 "Hg9 mi
12:00 AM45 °FClear.3 mph93%29.72 "Hg9 mi
11:00 PM
Oct 19
45 °FClear.3 mph100%29.73 "Hg9 mi
10:00 PM45 °FClear.No wind93%29.74 "Hg9 mi
Weather by CustomWeather, © 2014

See weather overviewHow to use our weather pages